Terminal Aerodrome Forecast
Issued by NWS Boston, MA

Current Version | Previous Version | Text Only | Print | Product List | Glossary On
Versions: 1 2 3 4 5 6 7 8 9 10 11 12 13 14 15 16 17 18 19 20 21 22 23 24 25 26 27 28 29 30 31 32 33 34 35 36 37 38 39 40
000 FTUS41 KBOX 300541 TAFBOS TAF KBOS 300541Z 3006/3112 16007KT P6SM -SN BKN020 OVC050 FM300800 16007KT 3SM -SN OVC015 FM301000 15007KT 2SM -SN OVC010 FM301700 05005KT 3SM -SN OVC015 FM310000 32012G20KT 2SM -SN OVC015 FM310900 32021G37KT P6SM OVC010=

USA.gov is the U.S. government's official web portal to all federal, state and local government web resources and services.